GW1791 Weather Reports


Display with metric or nautical units.
time (UTC)temp
F
wind
direction
speed
MPH
gust
MPH
rain 1hr
in
rain 24hr
in
rain mn
in
humidity
%
barometer
mb
20260504023836 59 280 0.0 0.0 0.00 0.00 0.00 43 1006.5
20260504023333 59 290 0.0 0.0 0.00 0.00 0.00 42 1006.5
20260504022828 59 290 0.0 0.0 0.00 0.00 0.00 43 1006.5
20260504022326 59 290 0.0 0.0 0.00 0.00 0.00 43 1006.4
20260504021822 59 290 0.0 0.0 0.00 0.00 0.00 43 1006.4
20260504021320 58 290 0.0 0.0 0.00 0.00 0.00 45 1006.4
20260504020817 59 289 0.0 0.0 0.00 0.00 0.00 45 1006.3
20260504020313 59 288 0.0 0.0 0.00 0.00 0.00 46 1006.3
20260504015809 59 293 0.0 0.0 0.00 0.00 0.00 46 1006.2
20260504015306 59 295 0.0 0.0 0.00 0.00 0.00 45 1006.3
20260504014802 60 289 0.0 0.0 0.00 0.00 0.00 44 1006.5
20260504014258 61 293 0.0 0.0 0.00 0.00 0.00 43 1006.4
20260504013756 61 292 0.0 0.0 0.00 0.00 0.00 42 1006.3
20260504013253 61 294 0.0 0.0 0.00 0.00 0.00 42 1006.4
20260504012749 62 294 0.0 0.0 0.00 0.00 0.00 42 1006.2
20260504012247 62 295 0.0 0.0 0.00 0.00 0.00 42 1006.1
20260504011744 63 295 0.0 0.0 0.00 0.00 0.00 41 1006.2
20260504011241 64 306 0.0 0.0 0.00 0.00 0.00 39 1006.2
20260504010737 65 313 0.0 0.0 0.00 0.00 0.00 37 1006.1
20260504010233 66 313 0.0 0.0 0.00 0.00 0.00 36 1006.0
20260504005730 66 322 0.0 0.0 0.00 0.00 0.00 35 1006.0
20260504005227 66 306 0.0 0.0 0.00 0.00 0.00 34 1006.1
20260504004724 67 315 0.0 0.0 0.00 0.00 0.00 32 1006.2
20260504004221 67 306 0.0 1.0 0.00 0.00 0.00 32 1006.1
20260504003718 68 313 0.0 0.0 0.00 0.00 0.00 32 1006.2
20260504003215 68 310 0.0 0.0 0.00 0.00 0.00 31 1006.1
20260504002712 69 311 0.0 0.0 0.00 0.00 0.00 30 1006.1
20260504002209 69 309 0.0 0.0 0.00 0.00 0.00 30 1006.0
20260504001707 69 321 2.0 6.0 0.00 0.00 0.00 29 1005.9
20260504001203 69 315 2.0 6.0 0.00 0.00 0.00 29 1006.0
20260504000700 70 302 2.0 2.0 0.00 0.00 0.00 29 1005.8
20260504000157 70 303 0.0 1.0 0.00 0.00 0.00 30 1005.8
20260503235655 70 305 0.0 1.0 0.00 0.00 0.00 30 1005.9
20260503235151 70 318 1.0 2.0 0.00 0.00 0.00 29 1005.8
20260503234649 70 339 1.0 2.0 0.00 0.00 0.00 29 1005.8
20260503234148 70 326 0.0 0.0 0.00 0.00 0.00 28 1006.0
20260503233644 70 357 1.0 2.0 0.00 0.00 0.00 28 1005.9
20260503233139 71 346 2.0 3.0 0.00 0.00 0.00 27 1005.7
20260503232637 71 342 1.0 3.0 0.00 0.00 0.00 29 1005.8
20260503232134 71 329 1.0 2.0 0.00 0.00 0.00 29 1005.9
20260503231632 71 330 1.0 2.0 0.00 0.00 0.00 30 1005.8
20260503231128 71 329 0.0 1.0 0.00 0.00 0.00 31 1005.7
20260503230625 71 349 0.0 1.0 0.00 0.00 0.00 28 1005.8
20260503230122 71 298 3.0 6.0 0.00 0.00 0.00 29 1005.8
20260503225620 72 320 3.0 5.0 0.00 0.00 0.00 29 1005.7
20260503225119 72 294 3.0 6.0 0.00 0.00 0.00 30 1005.6
20260503224617 71 331 0.0 0.0 0.00 0.00 0.00 30 1005.7
20260503224115 71 337 1.0 1.0 0.00 0.00 0.00 32 1005.7
20260503223613 72 337 0.0 0.0 0.00 0.00 0.00 31 1005.7
20260503223108 71 316 0.0 1.0 0.00 0.00 0.00 31 1005.7
20260503222606 71 325 2.0 3.0 0.00 0.00 0.00 29 1005.6
20260503222104 72 8 5.0 8.0 0.00 0.00 0.00 29 1005.8
20260503221602 71 9 0.0 0.0 0.00 0.00 0.00 30 1005.5
20260503221059 72 11 6.0 8.0 0.00 0.00 0.00 29 1005.9
20260503220555 72 348 3.0 5.0 0.00 0.00 0.00 29 1005.8
20260503220052 72 333 3.0 5.0 0.00 0.00 0.00 29 1005.9
20260503215549 72 309 3.0 5.0 0.00 0.00 0.00 29 1005.8
20260503215046 72 346 0.0 1.0 0.00 0.00 0.00 31 1005.7
20260503214544 72 313 1.0 2.0 0.00 0.00 0.00 30 1005.7
20260503214040 71 328 0.0 1.0 0.00 0.00 0.00 29 1005.9
20260503213539 72 325 1.0 2.0 0.00 0.00 0.00 29 1005.7
20260503213035 72 303 2.0 5.0 0.00 0.00 0.00 29 1005.7
20260503212533 72 337 3.0 6.0 0.00 0.00 0.00 30 1005.8
20260503212030 72 351 4.0 8.0 0.00 0.00 0.00 30 1005.7
20260503211527 72 8 6.0 8.0 0.00 0.00 0.00 28 1005.8
20260503211023 72 317 1.0 2.0 0.00 0.00 0.00 27 1005.8
20260503210520 72 331 7.0 9.0 0.00 0.00 0.00 29 1005.9
20260503210015 72 321 1.0 2.0 0.00 0.00 0.00 30 1005.9
20260503205512 72 36 3.0 5.0 0.00 0.00 0.00 27 1005.8
20260503205009 72 331 5.0 9.0 0.00 0.00 0.00 27 1005.7
20260503204506 72 309 4.0 9.0 0.00 0.00 0.00 27 1005.8
20260503204003 72 321 1.0 2.0 0.00 0.00 0.00 29 1005.8
20260503203500 72 333 2.0 5.0 0.00 0.00 0.00 30 1005.9
20260503202956 72 5 1.0 1.0 0.00 0.00 0.00 31 1006.0
20260503202455 72 23 1.0 2.0 0.00 0.00 0.00 30 1006.0
20260503201953 72 338 0.0 2.0 0.00 0.00 0.00 30 1006.1
20260503201450 72 334 4.0 9.0 0.00 0.00 0.00 34 1005.9
20260503200947 72 346 2.0 5.0 0.00 0.00 0.00 29 1006.0
20260503200444 72 308 1.0 2.0 0.00 0.00 0.00 32 1006.0
20260503195940 72 351 1.0 2.0 0.00 0.00 0.00 35 1005.9
20260503195438 72 343 4.0 7.0 0.00 0.00 0.00 33 1005.8
20260503194934 71 343 6.0 9.0 0.00 0.00 0.00 32 1006.0
20260503194431 71 333 3.0 3.0 0.00 0.00 0.00 35 1005.9
20260503193926 71 2 3.0 3.0 0.00 0.00 0.00 34 1005.9
20260503193422 71 358 2.0 3.0 0.00 0.00 0.00 35 1006.1
20260503192918 71 323 6.0 8.0 0.00 0.00 0.00 35 1006.2
20260503192414 71 353 1.0 3.0 0.00 0.00 0.00 35 1006.0
20260503191910 71 341 0.0 0.0 0.00 0.00 0.00 38 1006.0
20260503191408 71 0 2.0 3.0 0.00 0.00 0.00 35 1006.1
20260503190904 71 332 3.0 5.0 0.00 0.00 0.00 36 1006.2
20260503190402 71 325 0.0 1.0 0.00 0.00 0.00 37 1006.3
20260503185858 70 17 6.0 9.0 0.00 0.00 0.00 36 1006.2
20260503185355 70 290 3.0 6.0 0.00 0.00 0.00 38 1006.2
20260503184854 70 19 3.0 5.0 0.00 0.00 0.00 38 1006.1
20260503184350 71 337 4.0 6.0 0.00 0.00 0.00 37 1006.1
20260503183846 70 347 1.0 1.0 0.00 0.00 0.00 39 1006.2
20260503183344 70 315 1.0 2.0 0.00 0.00 0.00 41 1006.2
20260503182841 70 331 1.0 2.0 0.00 0.00 0.00 40 1006.2
20260503182340 71 357 3.0 13.0 0.00 0.00 0.00 41 1006.2
20260503181837 71 346 2.0 3.0 0.00 0.00 0.00 40 1006.3
20260503181334 70 340 0.0 1.0 0.00 0.00 0.00 43 1006.2
20260503180830 70 317 4.0 9.0 0.00 0.00 0.00 40 1006.2
20260503180328 69 333 2.0 2.0 0.00 0.00 0.00 42 1006.2
20260503175824 70 4 2.0 3.0 0.00 0.00 0.00 42 1006.4
20260503175323 69 330 0.0 0.0 0.00 0.00 0.00 41 1006.4
20260503174818 69 341 1.0 1.0 0.00 0.00 0.00 40 1006.4
20260503174316 70 346 3.0 7.0 0.00 0.00 0.00 41 1006.4
20260503173811 69 347 0.0 0.0 0.00 0.00 0.00 42 1006.4
20260503173308 68 342 0.0 0.0 0.00 0.00 0.00 42 1006.6
20260503172805 68 320 1.0 1.0 0.00 0.00 0.00 41 1006.7
20260503172304 68 3 0.0 1.0 0.00 0.00 0.00 44 1006.5
20260503171758 67 275 3.0 5.0 0.00 0.00 0.00 43 1006.6
20260503171255 67 346 0.0 1.0 0.00 0.00 0.00 43 1006.7
20260503170752 67 310 0.0 1.0 0.00 0.00 0.00 44 1006.8
20260503170249 68 2 0.0 0.0 0.00 0.00 0.00 42 1006.7
20260503160211 63 276 1.0 2.0 0.00 0.00 0.00 47 1007.2
20260503150641 60 262 1.0 2.0 0.00 0.00 0.00 50 1006.9
20260503150137 59 258 5.0 7.0 0.00 0.00 0.00 49 1007.2
20260503131031 53 222 7.0 10.0 0.00 0.00 0.00 55 1008.0
20260503130528 53 218 6.0 7.0 0.00 0.00 0.00 55 1008.0
20260503110419 52 193 2.0 3.0 0.00 0.00 0.00 56 1008.9
20260503090304 53 228 1.0 2.0 0.00 0.00 0.00 49 1011.6
20260503081231 53 251 1.0 3.0 0.00 0.00 0.00 50 1012.3
20260503080727 53 243 1.0 2.0 0.00 0.00 0.00 50 1012.4
20260503080224 53 250 2.0 3.0 0.00 0.00 0.00 50 1012.4
20260503072701 53 226 0.0 1.0 0.00 0.00 0.00 50 1011.8
20260503072157 53 244 0.0 0.0 0.00 0.00 0.00 50 1011.9
20260503071654 53 260 0.0 0.0 0.00 0.00 0.00 50 1012.1
20260503071151 53 250 0.0 0.0 0.00 0.00 0.00 50 1012.2
20260503070648 53 231 1.0 2.0 0.00 0.00 0.00 52 1012.3
20260503070146 53 259 1.0 2.0 0.00 0.00 0.00 51 1012.3
20260503060110 50 235 1.0 3.0 0.00 0.00 0.00 54 1012.3
20260503055102 50 237 1.0 1.0 0.00 0.00 0.00 53 1012.5
20260503054557 51 240 2.0 5.0 0.00 0.00 0.00 53 1012.5
20260503054055 51 236 1.0 2.0 0.00 0.00 0.00 53 1012.4
20260503053553 51 230 1.0 3.0 0.00 0.00 0.00 52 1012.5
20260503053050 51 231 1.0 2.0 0.00 0.00 0.00 53 1012.6
20260503052547 51 229 1.0 1.0 0.00 0.00 0.00 53 1012.5
20260503052043 50 236 1.0 1.0 0.00 0.00 0.00 54 1012.5
20260503051539 50 223 1.0 3.0 0.00 0.00 0.00 55 1012.6
20260503051037 50 236 0.0 0.0 0.00 0.00 0.00 55 1012.5
20260503050532 49 236 0.0 0.0 0.00 0.00 0.00 56 1012.6
20260503050030 49 236 0.0 1.0 0.00 0.00 0.00 55 1012.6
20260503045527 48 245 1.0 2.0 0.00 0.00 0.00 57 1012.7
20260503045024 48 242 0.0 0.0 0.00 0.00 0.00 59 1012.7
20260503044521 48 242 0.0 0.0 0.00 0.00 0.00 59 1012.5
20260503044019 48 237 0.0 0.0 0.00 0.00 0.00 58 1012.6
20260503043514 48 230 0.0 0.0 0.00 0.00 0.00 58 1012.9
20260503043011 48 231 0.0 0.0 0.00 0.00 0.00 58 1012.8
20260503042508 49 235 0.0 0.0 0.00 0.00 0.00 57 1012.8
20260503042004 50 233 0.0 1.0 0.00 0.00 0.00 55 1013.1
20260503041501 49 232 0.0 0.0 0.00 0.00 0.00 55 1013.2
20260503040959 49 242 0.0 1.0 0.00 0.00 0.00 55 1013.3
20260503040456 49 240 0.0 0.0 0.00 0.00 0.00 55 1013.1
20260503035953 49 238 0.0 0.0 0.00 0.00 0.00 56 1013.3
20260503035450 49 235 0.0 0.0 0.00 0.00 0.00 56 1013.4
20260503034948 49 240 0.0 0.0 0.00 0.00 0.00 55 1013.4
20260503034445 49 240 0.0 0.0 0.00 0.00 0.00 56 1013.3
20260503033942 49 241 0.0 1.0 0.00 0.00 0.00 55 1013.4
20260503033439 49 240 0.0 0.0 0.00 0.00 0.00 55 1013.5
20260503032937 49 238 0.0 0.0 0.00 0.00 0.00 56 1013.9
20260503032435 49 240 0.0 0.0 0.00 0.00 0.00 55 1013.9
20260503031932 50 243 0.0 0.0 0.00 0.00 0.00 55 1013.9
20260503031430 50 241 0.0 0.0 0.00 0.00 0.00 55 1013.9
20260503030926 50 243 0.0 0.0 0.00 0.00 0.00 54 1014.0
20260503030423 50 242 0.0 0.0 0.00 0.00 0.00 54 1013.9
20260503025920 50 239 0.0 0.0 0.00 0.00 0.00 56 1014.0
20260503025417 50 239 0.0 0.0 0.00 0.00 0.00 55 1014.0
20260503024914 50 240 0.0 0.0 0.00 0.00 0.00 54 1014.1
20260503024410 50 243 0.0 0.0 0.00 0.00 0.00 54 1014.0